sat.trackr.live / text

‹ back to catalog

OMNI-M1

NORAD 26857 · 2001-026A

PAYLOAD ACTIVE UNKNOWN

§ Identity

Operator
Country
NICO
Launch date
2001-06-19
Launch site
AFETR
Launch vehicle
Mass (kg)
RCS (m²)
33.18

External: N2YO · Heavens-Above · Gunter

§ Orbital elements

Epoch: 2026-05-22T11:51:02.700000Z

Period
366.97 min
Inclination
44.8394°
Eccentricity
0.0015128
Mean motion
3.92401464 rev/d
Perigee alt
10,575.3 km
Apogee alt
10,626.7 km
Semi-major
16,979.1 km
B*
0.0000e+0
RAAN
251.1861°
Arg perigee
49.3064°
Mean anomaly
310.8570°
Rev number
20,456

§ Raw data

OMNI-M11 26857U 01026A   26142.49378125 -.00000031  00000+0  00000+0 0  99942 26857  44.8394 251.1861 0015128  49.3064 310.8570  3.92401464204563

JSON: /api/v1/satellites/26857 · /tle

For live sub-satellite position, see the globe view (requires WebGL).

§ Visibility from observer

Set your observer location to see the next 7 days of passes ≥ 10°. The values pass through the URL so the page stays shareable.

No JS? Fill the form by hand. The geolocation button needs JavaScript.

§ Radio — SatNOGS DB

ModeDescriptionDownlinkUplink
LoRa LoRa modulation 2.199 GHz
LoRa Mode S - possible LoRa 2.186 GHz
BPSK S-band LoRa 125 kHz 2.213 GHz
LoRa S-band lora 2.199 GHz

4 transmitters · refreshed weekly from db.satnogs.org